Location: Baix
(44.7118°N, 4.7648°E)
Time: 14:56:43
(UTC+00:00)

Transit 4A - Visible Passes

Search period start: 12 June 2021 00:00
Search period end: 22 June 2021 00:00
Orbit: 871 x 973 km, 66.8° (Epoch: 11 June)

Date Brightness Start Highest point End Pass type
(mag) Time Alt. Az. Time Alt. Az. Time Alt. Az.
12 Jun 9.6 21:03:29 10° WNW 21:07:50 22° WSW 21:12:12 10° SSW visible
13 Jun 10.1 21:13:50 10° WNW 21:16:50 14° WSW 21:19:50 10° SW visible
17 Jun 10.1 20:03:57 10° WNW 20:07:56 19° WSW 20:11:56 10° SSW visible
18 Jun 10.3 20:14:42 10° W 20:16:55 12° WSW 20:19:07 10° SW visible
